Showing default

COSMOS 2227, 22284

Orbit data source: Space-Track

COSMOS 2227, 22284 is a payload satellite owned by GRU (CIS) in LEO that was launched on Fri, 25 Dec 1992 UTC via a ZENIT-2 launch vehicle from the Tyuratam Missile And Space Complex (TTMTR). Payload-class satellites include a variety of spacecraft equipped with specific instruments for various scientific and technological missions. These include communications satellites like Starlink; space stations such as the ISS; scientific satellites like the Hubble; Earth observation satellites from companies like Planet Labs, Umbra, and HawkEye 360; GPS; miniature CubeSats for education and research; and military/defense satellites.

Loading next visibility...
Identifier
22284, 1992-093A
Orbit
LEO
Country
Flag of CISCIS
Related business
Manufacturer
Yuzhnoe
Mission
Defense Sigint
Bus & Motor
TSELINA-2, Unknown motor
Mass
3,250 kg wet, 3,250 kg dry
Launch date (UTC)
1992-12-25 (33 years ago)
Launch vehicle
ZENIT-2
Launch site
Tyuratam Missile And Space Complex (TTMTR)
Object type
Payload
Rocket body
Debris
Shape & HBR
Unknown shape, 9.5 m
Radar Cross Section
Large (>1 m²)

Expand to show TLE details & history
Last TLE update: 9 hours ago

TLE from 9 hours ago
0 COSMOS 2227
1 22284U 92093A   25352.94082424 -.00000253  00000-0 -10846-3 0  9995
2 22284  70.9766 201.2716 0017694 162.9893 197.1826 14.13744648701351
Epoch: 2025-12-18T22:34Z
TLE epoch observation values (Epoch: 2025-12-18T22:34:47.214Z)
Latitude
0.00001°
Longitude
134.78576°
Altitude
861.2 km
Speed
7.416 km/s
True Right ascension
13h 25m 05s
True Declination
0° 00' 00"
Sunlit
Object was in daylight at epoch
Visualization orbit readout
Latitude
Unknown
Longitude
Unknown
Altitude
Unknown
Speed
Unknown
Apparent Right ascension
Unknown
Apparent Declination
Unknown
Sunlit
N/A
Visualization observer readout
Local Sidereal Time
06:06:19
Azimuth
Unknown
Elevation
Unknown
Doppler factor
Unknown
Orbital elements
Apogee altitude
857.294 km
Perigee altitude
831.735 km
Semi-major axis
7,222.651 km
Eccentricity
0.00177
Inclination
70.9766°
RAAN
201.2716°
Arg. of periapsis
162.9893°
True anomaly
197.12283°
Mean anomaly
197.1826°
Eccentric anomaly
197.1527°
Mean motion
3.53589 °/min
Orbital period
101.81 mins
BSTAR
-0.00010846
Loading maneuver chart data...
Computing Atmospheric mass density...
Loading historical data...
Loading historical data...
Loading historical data...
Loading historical data...
Loading historical data...
Loading historical data...
Loading historical data...

Documentation

Showing up to 5 results
|